Home > Weather > Vieux Fort > Past weeks

Flag for Saint Lucia Past Weather in Vieux Fort, Saint Lucia — Yesterday and Last 2 Weeks

Now
88 °F

Scattered clouds.


Feels Like: 100 °F
Forecast: 81 / 89 °F
Wind: 17 mph from East

Location: Hewanorra International Airport

Current Time: Aug 28, 2016 at 12:48:49 PM

Latest Report: Aug 28, 2016 at 11:00 AM


Visibility: N/A

Pressure: 29.98 "Hg

Humidity: 70%

Dew Point: 77 °F

Location of Vieux FortLocation

Past Weather in Vieux Fort — Graph

°F

Vieux Fort Temperature Yesterday

Maximum temperature yesterday: 88 °F (at 11:00 AM)
Minimum temperature yesterday: 77 °F (at 4:00 AM)
Average temperature yesterday: 84 °F

High & Low Weather Summary for the Past Weeks

 TemperatureHumidityPressure
High90 °F (Aug 15, 1:00 PM)100% (Aug 24, 2:00 AM)30.01 "Hg (Aug 24, 2:00 AM)
Low75 °F (Aug 23, 4:00 AM)62% (Aug 13, 1:00 PM)29.86 "Hg (Aug 23, 5:00 PM)
Average84 °F78%29.95 "Hg
* Reported Aug 13 11:00 AM — Aug 28 11:00 AM, Vieux Fort, Weather by CustomWeather, © 2016

Note: Actual official high and low records may vary slightly from our data, if they occured in-between our weather recording intervals... More about our weather records

Advertising

Vieux Fort Weather History for the Previous 24 Hours

Scroll right to see more
 ConditionsComfort  
Time TempWeatherWind HumidityBarometerVisibility
11:00 AM
Sun, Aug 28
88 °FScattered clouds.17 mph70%29.98 "HgN/A
10:00 AM88 °FPassing clouds.17 mph70%29.98 "HgN/A
9:00 AM88 °FPassing clouds.18 mph70%29.98 "HgN/A
8:00 AM86 °FPartly sunny.16 mph75%29.98 "HgN/A
7:00 AM84 °FScattered clouds.16 mph79%29.95 "HgN/A
6:00 AM82 °FScattered clouds.12 mph79%29.95 "HgN/A
5:00 AM82 °FPassing clouds.13 mph79%29.92 "HgN/A
4:00 AM82 °FPassing clouds.16 mph79%29.92 "HgN/A
3:00 AM82 °FPassing clouds.16 mph79%29.92 "HgN/A
2:00 AM81 °FPassing clouds.9 mph89%29.92 "HgN/A
1:00 AM84 °FPassing clouds.7 mph79%29.92 "HgN/A
11:00 PM
Sat, Aug 27
84 °FPassing clouds.7 mph79%29.95 "HgN/A
10:00 PM84 °FPassing clouds.10 mph79%29.95 "HgN/A
8:00 PM84 °FPassing clouds.12 mph79%29.92 "HgN/A
7:00 PM84 °FPassing clouds.12 mph74%29.92 "HgN/A
6:00 PM86 °FScattered clouds.12 mph75%29.89 "HgN/A
5:00 PM88 °FPassing clouds.12 mph70%29.89 "HgN/A
4:00 PM88 °FPassing clouds.12 mph70%29.89 "HgN/A
3:00 PM88 °FPassing clouds.12 mph70%29.89 "HgN/A
2:00 PM88 °FPassing clouds.14 mph70%29.92 "HgN/A
1:00 PM88 °FPassing clouds.10 mph70%29.92 "HgN/A
12:00 PM88 °FPassing clouds.13 mph70%29.95 "HgN/A
Weather by CustomWeather, © 2016

See weather overviewHow to use our weather pages